{"data":{"norad_id":45163,"intl_designator":"2020-008AJ","name":"ONEWEB-0062","alt_names":[],"object_type":"PAYLOAD","status":"ACTIVE","operator":null,"country":"UK","launch_date":"2020-02-06","launch_site_code":"TYMSC","launch_vehicle":null,"mission":null,"orbit_class":"UNKNOWN","rcs_meters":null,"size_class":null,"mass_kg":null,"dimensions":null,"purposes":["comms"],"wikipedia_slug":null,"has_3d_model":false,"image_url":null,"decayed_at":null,"tle_current":{"epoch":"2026-09-20T01:35:37.740192Z","epoch_age_seconds":52199,"freshness":"FRESH","line1":"1 45163U 20008AJ  26263.06640903  .00000234  00000+0  63366-3 0  9991","line2":"2 45163  87.8912  17.3819 0001515  92.9669 267.1632 13.10374865320615","mean_motion":13.10374865,"eccentricity":0.0001515,"inclination_deg":87.8912,"raan_deg":17.3819,"arg_perigee_deg":92.9669,"mean_anomaly_deg":267.1632,"bstar":0.00063366,"rev_number":32061,"period_min":109.89221775099,"perigee_km":1220.5578554713,"apogee_km":1222.8606088797,"semimajor_km":7599.8462321755,"source":"CELESTRAK","updated_at":"2026-09-20T09:00:44.551317Z"}}}